7 * 24
多渠道服务支持
STARLINK-34585是美国于2025年7月8日发射的星链(Starlink)系列卫星,隶属于SpaceX公司的星链互联网星座项目。星链旨在为全球提供高速低延迟宽带互联网服务,该卫星的发射进一步扩充了星链星座的在轨卫星规模,推进了项目的全球覆盖部署进程。
美国
(US)
| 数据来源 | 国际轨道数据 | AOE轨道数据 |
| 星历时间 | 2026-09-03T10:27:48+0800 1天前 查看轨道信息 | 2026-08-31T22:00:00+0800 3天前 查看轨道信息 |
| 半长轴 | 6840.814km | 6840.909km |
| 偏心率 | 0.0000567 | 0.0001193 |
| 轨道倾角 | 53.158° | 53.156° |
| 近地点辐角 | 105.765° | 61.312° |
| 升交点赤经 | 135.197° | 146.977° |
| 平近点角 | 254.342° | 54.766° |
| 近地点 | 462.289km | 461.955km |
| 远地点 | 463.065km | 463.589km |
| 周期 | 93.847分钟 | 93.849分钟 |
| 每日圈数 | 15.344089 | 15.343771 |
| 事件ID | 空间交会对象 | 最接近时刻(TCA) | 交会距离 | 交会风险概率(CRP) | 交会风险指数(CRI) | 操作 |
|---|---|---|---|---|---|---|
| CDM_260905-110305-313406-477921 |
STARLINK-4150
(53134)
STARLINK-34585
(64779) | 2026-09-05T 11:03:39+0000 |
0.690 km
远距离 | 4.321084E-5 中风险 | 0.68 | |
| CDM_260905-053505-313406-477921 |
STARLINK-4150
(53134)
STARLINK-34585
(64779) | 2026-09-05T 05:35:23+0000 |
1.015 km
极远距离 | 1.202341E-5 中风险 | 0.57 | |
| CDM_260905-134606-009506-477921 |
STARLINK-32028
(60095)
STARLINK-34585
(64779) | 2026-09-05T 13:46:34+0000 |
1.448 km
极远距离 | 6.513959E-6 低风险 | 0.51 | |
| CDM_260903-165104-578606-477921 |
STARLINK-1513
(45786)
STARLINK-34585
(64779) | 2026-09-03T 16:51:12+0000 |
1.672 km
极远距离 | 2.397212E-6 低风险 | 0.43 | |
| CDM_260903-204504-578606-477921 |
STARLINK-1513
(45786)
STARLINK-34585
(64779) | 2026-09-03T 20:45:40+0000 |
2.510 km
极远距离 | 9.481386E-7 极低风险 | 0.35 | |
| CDM_260905-075405-265606-477921 |
STARLINK-4004
(52656)
STARLINK-34585
(64779) | 2026-09-05T 07:54:25+0000 |
2.938 km
极远距离 | 8.783119E-7 极低风险 | 0.34 | |
| CDM_260903-191104-578606-477921 |
STARLINK-1513
(45786)
STARLINK-34585
(64779) | 2026-09-03T 19:11:53+0000 |
2.961 km
极远距离 | 7.567609E-7 极低风险 | 0.33 |